Starlink 11357

operational
NORAD ID: 61541 Int'l Des: 2024-184 Owner: SPXS Country: US Constellation: starlink
LEOCIRCULAR

关于 Starlink 11357

正在加载描述...

实时位置

正在加载3D地球...

即将过境

高度历史

Altitude vs Time

uPlot chart will show altitude changes over time

两行轨道根数

1 61541U 24184K 25259.62140932 -.00000368 00000-0 18228-5 0 9990
2 61541 53.1592 14.6710 0000945 80.8820 279.2305 15.69673880 53073
Epoch: Sep 16, 2025 • Age: 34 hours

当前状态

高度 363.7 km
速度 7.69 km/s
星下点 -13.67°S, 179.71°W
发射日期 Oct 15, 2024
运行时间 0.9 years
类型 internet

技术详情

分类 Payload
质量 960.00 kg
干质量 910.00 kg
总质量 960.00 kg
长度 0.30 m
直径 4.10 m
跨度 29.00 m
形状 Box + pan
制造商 SPXS
平台类型 Starlink V2MD
阶段状态 In Orbit
所有者/国家 SPXS/US

大型星座

Loading constellations...